Terminal Aerodrome Forecast
Issued by NWS Columbia, SC

Home | Current Version | Previous Version | Text Only | Print | Product List | Glossary On
Versions: 1 2 3 4 5 6 7 8 9 10 11 12 13 14 15 16 17 18 19 20 21 22 23 24 25 26 27 28 29
000
FTUS42 KCAE 141100
TAFCAE
TAF
KCAE 141137Z 1412/1512 23006KT P6SM FEW007
      TEMPO 1412/1414 BKN007
     FM141400 24005KT P6SM SCT030
     FM141700 25011KT P6SM BKN050=

USA.gov is the U.S. government's official web portal to all federal, state and local government web resources and services.